Regional Weather Roundup
Issued by NWS

Home | Current Version | Previous Version | Text Only | Print | Product List | Glossary Off
Versions: 1 2 3 4 5 6 7 8 9 10 11 12 13 14 15 16 17 18 19 20 21 22 23 24 25 26 27 28 29 30 31 32 33 34 35 36 37 38 39 40 41 42 43 44 45 46 47 48

000
ASUS45 KSLC 270610
RWRUT

UTAH REGIONAL WEATHER ROUNDUP
NATIONAL WEATHER SERVICE SALT LAKE CITY UT
1200 AM MDT FRI MAR 27 2015

UTZ001>011-023>025-270700-

NORTHERN UTAH

CITY           SKY/WX    TMP DP  RH WIND       PRES   REMARKS
BRIGHAM CITY   CLEAR     45  33  63 CALM      30.35S
HILL AFB       PTCLDY    46  28  50 E10       30.35R
LOGAN          CLEAR     42  34  73 CALM      30.35S
OGDEN          PTCLDY    44  29  55 S8        30.33S
PROVO AIRPORT  CLEAR     41  28  60 CALM      30.36S
SALT LAKE CITY PTCLDY    48  30  49 S7        30.34S
VERNAL         PTCLDY    41  24  51 CALM      30.28S
WENDOVER       CLEAR     48  27  43 W6        30.34S
HEBER CITY     CLEAR     34  27  75 SE3       30.38R
WEST JORDAN    CLEAR     43  30  61 SW6       30.36S

$$

UTZ012>022-026-027-270700-

SOUTHERN/CENTRAL UTAH

CITY           SKY/WX    TMP DP  RH WIND       PRES   REMARKS
BLANDING       CLEAR     42  20  42 W7        30.38S
BRYCE CANYON   CLEAR     33  25  72 W8        30.43R WCI  26
CEDAR CITY     CLEAR     40  25  55 CALM      30.35R
DELTA          CLEAR     38  21  51 CALM      30.35R
HANKSVILLE     CLEAR     43  18  36 CALM      30.29S
MILFORD        CLEAR     39  21  48 S3        30.35R
MOAB/CYNLANDS  CLEAR     45  14  28 CALM      30.25R
PRICE          CLEAR     51  20  29 NW12      30.31R
ST GEORGE      CLEAR     64  27  24 NE8       30.24R
KANAB          CLEAR     43  25  49 NE8       30.35R

$$

REGIONAL REPORTS     COLORADO/ARIZONA

CITY           SKY/WX    TMP DP  RH WIND       PRES   REMARKS
CRAIG, CO      MOCLDY    41  29  62 SW7       30.33R
GRAND JUNCTION CLEAR     43  19  38 E6        30.29R
RIFLE          PTCLDY    43  23  45 E3        30.31R
MONTROSE       CLEAR     41  24  51 SE10      30.35R
CORTEZ         CLEAR     35  18  49 E8        30.33R WCI  29
PAGE, AZ       PTCLDY    54  21  27 W3        30.27S
GRAND CANYON   PTCLDY    30  17  58 CALM      30.38R
KINGMAN        CLEAR     52  23  32 SE12      30.23R
FLAGSTAFF      CLEAR     32  15  49 CALM      30.39R

$$

REGIONAL REPORTS    NEVADA/IDAHO/WYOMING

CITY           SKY/WX    TMP DP  RH WIND       PRES   REMARKS
LAS VEGAS, NV  CLEAR     67  27  22 S12       30.14R
ELY            CLEAR     39  21  48 S10       30.37R WCI  32
ELKO           CLEAR     45  30  55 E5        30.31R
POCATELLO, ID  CLEAR     43  32  65 S5        30.34R
BURLEY         CLEAR     43  36  76 S5        30.31R
EVANSTON, WY   PTCLDY    40  26  57 S5        30.40S
ROCK SPRINGS   PTCLDY    40  29  64 W15       30.33R WCI  32
KEMMERER       PTCLDY    39  32  75 W8        30.40S WCI  34

$$


USA.gov is the U.S. government's official web portal to all federal, state and local government web resources and services.